CW7448 Weather Reports


time (UTC)temp
C
wind
direction
speed
KPH
gust
KPH
rain 1hr
cm
rain 24hr
cm
rain mn
cm
humidity
%
barometer
mb
20260506212006 14 296 3.2 11.3 0.05 0.25 0.25 95 1007.1
20260506211508 14 300 0.0 9.7 0.05 0.25 0.25 95 1007.1
20260506211003 14 5 1.6 16.1 0.03 0.23 0.23 95 1007.1
20260506210503 14 309 3.2 16.1 0.00 0.20 0.20 95 1007.2
20260506210002 14 311 3.2 17.7 0.00 0.20 0.20 95 1007.3
20260506205501 14 318 4.8 17.7 0.00 0.20 0.20 95 1007.3
20260506205002 14 122 3.2 14.5 0.00 0.20 0.20 95 1007.4
20260506204506 14 332 3.2 12.9 0.00 0.20 0.20 95 1007.5
20260506204003 14 9 4.8 16.1 0.00 0.20 0.20 95 1007.5
20260506203502 14 333 1.6 16.1 0.00 0.20 0.20 95 1007.5
20260506203004 14 306 3.2 14.5 0.00 0.20 0.20 95 1007.4
20260506202504 14 319 3.2 14.5 0.00 0.20 0.20 95 1007.4
20260506202004 14 54 3.2 16.1 0.00 0.20 0.20 95 1007.4
20260506201503 14 332 1.6 16.1 0.00 0.20 0.20 94 1007.5
20260506201004 14 13 3.2 9.7 0.03 0.20 0.20 94 1007.5
20260506200503 14 53 1.6 9.7 0.03 0.20 0.20 94 1007.5
20260506200005 14 13 1.6 14.5 0.05 0.20 0.20 94 1007.7
20260506195503 14 352 3.2 14.5 0.08 0.20 0.20 94 1007.7
20260506195003 14 287 4.8 16.1 0.10 0.20 0.20 94 1007.8
20260506194504 13 344 4.8 16.1 0.13 0.20 0.20 94 1007.8
20260506194004 14 241 3.2 12.9 0.15 0.20 0.20 94 1007.9
20260506193504 14 323 3.2 11.3 0.15 0.20 0.20 94 1007.8
20260506193004 14 320 4.8 14.5 0.15 0.20 0.20 94 1007.9
20260506192503 14 5 3.2 19.3 0.18 0.20 0.20 94 1007.9
20260506192004 14 303 3.2 19.3 0.18 0.20 0.20 93 1007.9
20260506191504 14 294 4.8 11.3 0.18 0.20 0.20 93 1008.0
20260506191003 14 318 3.2 16.1 0.18 0.18 0.18 93 1008.0
20260506190507 14 254 4.8 16.1 0.18 0.18 0.18 92 1008.2
20260506190004 14 338 4.8 16.1 0.15 0.15 0.15 92 1008.0
20260506185504 14 15 1.6 16.1 0.13 0.13 0.13 91 1008.0
20260506185003 14 345 6.4 17.7 0.10 0.10 0.10 91 1007.9
20260506184506 14 308 3.2 17.7 0.08 0.08 0.08 90 1008.1
20260506184006 15 330 3.2 16.1 0.05 0.05 0.05 90 1008.1
20260506183503 15 334 3.2 16.1 0.05 0.05 0.05 89 1008.3
20260506183004 15 31 3.2 16.1 0.05 0.05 0.05 89 1008.4
20260506182504 15 261 4.8 16.1 0.03 0.03 0.03 89 1008.5
20260506182004 15 294 4.8 16.1 0.03 0.03 0.03 88 1008.6
20260506181504 15 326 4.8 16.1 0.03 0.03 0.03 87 1008.7
20260506181004 15 346 3.2 12.9 0.00 0.00 0.00 87 1008.8
20260506180504 15 360 1.6 12.9 0.00 0.00 0.00 86 1008.8
20260506180011 16 317 3.2 17.7 0.00 0.00 0.00 84 1008.7
20260506175504 16 343 6.4 17.7 0.00 0.00 0.00 83 1008.8
20260506175004 16 329 8.0 29.0 0.00 0.00 0.00 81 1008.9
20260506174510 16 10 4.8 29.0 0.00 0.00 0.00 80 1008.9
20260506174004 16 61 6.4 19.3 0.00 0.00 0.00 79 1009.0
20260506173504 17 333 6.4 19.3 0.00 0.00 0.00 78 1009.0
20260506173008 17 360 8.0 24.1 0.00 0.00 0.00 77 1009.2
20260506172502 17 184 6.4 24.1 0.00 0.00 0.00 76 1009.1
20260506172002 17 54 8.0 16.1 0.00 0.00 0.00 76 1009.1
20260506171507 18 24 3.2 19.3 0.00 0.00 0.00 75 1009.2
20260506171006 18 330 4.8 24.1 0.00 0.00 0.00 74 1009.2
20260506170504 18 316 4.8 24.1 0.00 0.00 0.00 74 1009.3
20260506170008 18 261 9.7 22.5 0.00 0.00 0.00 73 1009.3
20260506165505 18 325 8.0 22.5 0.00 0.00 0.00 73 1009.3
20260506165003 19 317 8.0 19.3 0.00 0.00 0.00 73 1009.2
20260506164509 19 253 4.8 17.7 0.00 0.00 0.00 73 1009.2
20260506164007 19 348 6.4 20.9 0.00 0.00 0.00 74 1009.1
20260506163504 19 321 6.4 20.9 0.00 0.00 0.00 73 1009.1
20260506163011 19 323 4.8 19.3 0.00 0.00 0.00 74 1009.2
20260506162505 19 298 6.4 19.3 0.00 0.00 0.00 71 1009.4
20260506162006 20 246 8.0 19.3 0.00 0.00 0.00 74 1009.4
20260506161512 19 261 4.8 27.4 0.00 0.00 0.00 73 1009.4
20260506161002 19 323 4.8 27.4 0.00 0.00 0.00 73 1009.6
20260506160502 20 53 8.0 27.4 0.00 0.00 0.00 71 1009.7
20260506160011 20 342 6.4 22.5 0.00 0.00 0.00 70 1009.6
20260506155503 20 325 6.4 22.5 0.00 0.00 0.00 69 1009.6
20260506155003 20 263 6.4 20.9 0.00 0.00 0.00 70 1009.6
20260506154510 20 213 6.4 27.4 0.00 0.00 0.00 69 1009.7
20260506154003 20 317 9.7 27.4 0.00 0.00 0.00 68 1009.7
20260506153503 20 264 3.2 16.1 0.00 0.00 0.00 71 1009.7
20260506153013 20 298 4.8 16.1 0.00 0.00 0.00 71 1009.7
20260506152504 20 311 4.8 24.1 0.00 0.00 0.00 70 1009.7
20260506152006 20 186 9.7 24.1 0.00 0.00 0.00 69 1009.9
20260506151513 20 270 4.8 19.3 0.00 0.00 0.00 69 1009.8
20260506151004 20 292 9.7 19.3 0.00 0.00 0.00 69 1009.9
20260506150506 20 340 6.4 19.3 0.00 0.00 0.00 70 1010.0
20260506150012 20 327 4.8 17.7 0.00 0.00 0.00 71 1010.0
20260506145506 20 276 4.8 16.1 0.00 0.00 0.00 69 1010.0
20260506145006 20 323 4.8 22.5 0.00 0.00 0.00 70 1010.0
20260506144515 20 13 6.4 22.5 0.00 0.00 0.00 70 1009.9
20260506144004 20 211 3.2 20.9 0.00 0.00 0.00 73 1010.0
20260506143504 19 260 8.0 20.9 0.00 0.00 0.00 71 1010.0
20260506143026 19 351 8.0 25.7 0.00 0.00 0.00 74 1010.1
20260506142506 19 344 12.9 29.0 0.00 0.00 0.00 71 1010.1
20260506142003 19 352 6.4 29.0 0.00 0.00 0.00 73 1010.2
20260506141514 18 13 8.0 19.3 0.00 0.00 0.00 74 1010.1
20260506141006 18 28 4.8 14.5 0.00 0.00 0.00 75 1010.0
20260506140506 18 308 4.8 16.1 0.00 0.00 0.00 73 1010.0
20260506140015 18 234 4.8 16.1 0.00 0.00 0.00 74 1010.0
20260506135505 18 331 4.8 22.5 0.00 0.00 0.00 74 1009.9
20260506135007 18 107 6.4 22.5 0.00 0.00 0.00 74 1009.9
20260506134516 18 310 9.7 19.3 0.00 0.00 0.00 74 1009.9
20260506134008 18 327 6.4 17.7 0.00 0.00 0.00 74 1010.0
20260506133505 18 352 4.8 17.7 0.00 0.00 0.00 75 1010.0
20260506133020 18 280 4.8 17.7 0.00 0.00 0.00 74 1009.9
20260506132505 18 190 4.8 16.1 0.00 0.00 0.00 75 1010.0
20260506132008 18 292 4.8 20.9 0.00 0.00 0.00 74 1010.1
20260506131504 18 80 6.4 20.9 0.00 0.00 0.00 74 1010.0
20260506131007 18 18 6.4 17.7 0.00 0.00 0.00 75 1010.1
20260506130505 18 315 8.0 16.1 0.00 0.00 0.00 77 1010.1
20260506130019 18 259 6.4 22.5 0.00 0.00 0.00 77 1010.2
20260506125503 18 24 4.8 22.5 0.00 0.00 0.00 77 1010.3
20260506125005 18 315 4.8 19.3 0.00 0.00 0.00 79 1010.3
20260506124503 17 325 4.8 16.1 0.00 0.00 0.00 80 1010.3
20260506124003 17 285 4.8 14.5 0.00 0.00 0.00 82 1010.3
20260506123503 16 48 1.6 16.1 0.00 0.00 0.00 83 1010.2
20260506123008 16 205 1.6 17.7 0.00 0.00 0.00 84 1010.4
20260506122503 16 333 4.8 17.7 0.00 0.00 0.00 83 1010.3
20260506122002 16 10 4.8 12.9 0.00 0.00 0.00 85 1010.5
20260506121520 16 352 3.2 14.5 0.00 0.00 0.00 84 1010.5
20260506121004 16 5 6.4 14.5 0.00 0.00 0.00 84 1010.5
20260506120504 16 223 4.8 12.9 0.00 0.00 0.00 85 1010.6
20260506120008 15 333 3.2 14.5 0.00 0.00 0.00 86 1010.6
20260506115505 15 46 4.8 14.5 0.00 0.00 0.00 86 1010.7
20260506115005 15 20 6.4 16.1 0.00 0.00 0.00 86 1010.5
20260506114522 15 313 4.8 16.1 0.00 0.00 0.00 87 1010.6
20260506114008 15 312 1.6 6.4 0.00 0.00 0.00 88 1010.8
20260506113506 15 32 3.2 12.9 0.00 0.00 0.00 89 1010.8
20260506113028 14 332 3.2 12.9 0.00 0.00 0.00 89 1010.9
20260506112506 14 199 4.8 11.3 0.00 0.00 0.00 90 1010.8
20260506112008 13 198 1.6 8.0 0.00 0.00 0.00 90 1010.9
20260506111508 13 275 0.0 14.5 0.00 0.00 0.00 89 1010.8
20260506111008 13 343 3.2 14.5 0.00 0.00 0.00 90 1011.0
20260506110503 13 282 0.0 14.5 0.00 0.00 0.00 90 1011.0
20260506110016 13 277 3.2 9.7 0.00 0.00 0.00 91 1011.0
20260506105506 13 298 3.2 9.7 0.00 0.00 0.00 91 1010.9
20260506105005 13 5 1.6 12.9 0.00 0.00 0.00 91 1010.8
20260506104513 13 74 1.6 12.9 0.00 0.00 0.00 91 1010.8
20260506104006 13 263 3.2 12.9 0.00 0.00 0.00 91 1010.8
20260506103507 13 201 1.6 8.0 0.00 0.00 0.00 91 1010.9
20260506103011 13 314 1.6 8.0 0.00 0.00 0.00 91 1010.8
20260506102507 13 207 1.6 12.9 0.00 0.00 0.00 91 1010.7
20260506102008 13 23 0.0 12.9 0.00 0.00 0.00 91 1010.8
20260506101526 13 338 3.2 9.7 0.00 0.00 0.00 91 1010.6
20260506101006 13 279 1.6 9.7 0.00 0.00 0.00 90 1010.6
20260506100505 13 340 1.6 11.3 0.00 0.00 0.00 90 1010.6
20260506100011 13 352 1.6 11.3 0.00 0.00 0.00 90 1010.6
20260506095505 13 343 3.2 11.3 0.00 0.00 0.00 90 1010.6
20260506095004 13 324 3.2 8.0 0.00 0.00 0.00 90 1010.6
20260506094520 12 321 3.2 9.7 0.00 0.00 0.00 90 1010.6
20260506094005 12 55 3.2 9.7 0.00 0.00 0.00 90 1010.6
20260506093502 13 115 0.0 4.8 0.00 0.00 0.00 90 1010.6
20260506093019 13 360 1.6 6.4 0.00 0.00 0.00 90 1010.6
20260506092507 13 352 1.6 6.4 0.00 0.00 0.00 89 1010.6
20260506092007 13 288 1.6 8.0 0.00 0.00 0.00 89 1010.6
20260506091517 13 309 1.6 12.9 0.00 0.00 0.00 89 1010.6
20260506091008 13 245 1.6 12.9 0.00 0.00 0.00 89 1010.6
20260506090508 13 336 1.6 9.7 0.00 0.00 0.00 89 1010.8
20260506090041 13 342 1.6 9.7 0.00 0.00 0.00 89 1010.8
20260506085511 13 49 1.6 6.4 0.00 0.00 0.00 89 1010.8
20260506085008 13 37 1.6 9.7 0.00 0.00 0.00 89 1010.8
20260506084514 13 80 3.2 16.1 0.00 0.00 0.00 89 1010.8
20260506084003 13 298 3.2 16.1 0.00 0.00 0.00 88 1010.8
20260506083505 13 352 1.6 6.4 0.00 0.00 0.00 88 1010.7
20260506083017 13 294 1.6 8.0 0.00 0.00 0.00 88 1010.8
20260506082505 13 284 3.2 8.0 0.00 0.00 0.00 88 1011.0
20260506082007 13 267 4.8 12.9 0.00 0.00 0.00 88 1011.0
20260506081524 13 298 3.2 12.9 0.00 0.00 0.00 88 1011.0
20260506081007 13 331 1.6 12.9 0.00 0.00 0.00 88 1011.0
20260506080508 13 352 3.2 12.9 0.00 0.00 0.00 88 1011.0
20260506073507 13 310 3.2 14.5 0.00 0.00 0.00 87 1011.1
20260506073028 13 297 3.2 14.5 0.00 0.00 0.00 87 1011.1
20260506072513 13 325 4.8 12.9 0.00 0.00 0.00 87 1011.1
20260506072006 13 338 4.8 12.9 0.00 0.00 0.00 86 1011.0
20260506071519 13 333 1.6 12.9 0.00 0.00 0.00 86 1011.0
20260506071007 13 272 3.2 12.9 0.00 0.00 0.00 86 1010.9
20260506070507 13 331 1.6 11.3 0.00 0.00 0.00 86 1010.9
20260506062502 14 14 3.2 12.9 0.00 0.00 0.00 84 1010.9
20260506062004 14 273 3.2 12.9 0.00 0.00 0.00 84 1010.9
20260506061538 14 296 4.8 16.1 0.00 0.00 0.00 84 1011.0
20260506061004 14 261 1.6 17.7 0.00 0.00 0.00 84 1011.0
20260506060504 14 273 3.2 17.7 0.00 0.00 0.00 84 1011.0
20260506051004 15 13 3.2 16.1 0.00 0.00 0.00 81 1011.5
20260506050506 15 285 6.4 16.1 0.00 0.00 0.00 81 1011.5
20260506045008 15 250 1.6 14.5 0.00 0.00 0.00 80 1011.5
20260506044524 15 326 3.2 14.5 0.00 0.00 0.00 80 1011.6
20260506044007 15 15 4.8 14.5 0.00 0.00 0.00 80 1011.6
20260506043503 15 9 3.2 14.5 0.00 0.00 0.00 79 1011.7
20260506043034 15 344 1.6 16.1 0.00 0.00 0.00 79 1011.5
20260506042506 15 250 3.2 16.1 0.00 0.00 0.00 79 1011.6
20260506042003 15 332 3.2 12.9 0.00 0.00 0.00 78 1011.6
20260506041511 15 351 3.2 12.9 0.00 0.00 0.00 78 1011.6
20260506041003 15 244 3.2 20.9 0.00 0.00 0.00 77 1011.6
20260506040503 16 327 8.0 20.9 0.00 0.00 0.00 77 1011.6
20260506040009 16 318 6.4 20.9 0.00 0.00 0.00 77 1011.6
20260506035504 15 350 3.2 19.3 0.00 0.00 0.00 77 1011.6
20260506035011 15 327 4.8 16.1 0.00 0.00 0.00 76 1011.5
20260506034524 16 217 4.8 17.7 0.00 0.00 0.00 75 1011.6
20260506034004 16 41 4.8 19.3 0.00 0.00 0.00 75 1011.5
20260506033507 16 9 6.4 19.3 0.00 0.00 0.00 75 1011.6
20260506033023 16 292 3.2 19.3 0.00 0.00 0.00 75 1011.5
20260506032509 16 259 3.2 19.3 0.00 0.00 0.00 74 1011.5
20260506032008 16 284 3.2 14.5 0.00 0.00 0.00 74 1011.3
20260506031521 16 335 6.4 24.1 0.00 0.00 0.00 74 1011.4
20260506031011 16 300 8.0 24.1 0.00 0.00 0.00 74 1011.4
20260506030505 15 352 3.2 12.9 0.00 0.00 0.00 74 1011.4
20260506030018 15 346 1.6 12.9 0.00 0.00 0.00 75 1011.4
20260506025503 15 327 1.6 14.5 0.00 0.00 0.00 75 1011.3
20260506025003 15 171 4.8 14.5 0.00 0.00 0.00 74 1011.2
20260506024532 15 333 3.2 9.7 0.00 0.00 0.00 74 1011.3
20260506024007 15 304 3.2 12.9 0.00 0.00 0.00 75 1011.3
20260506023508 15 313 3.2 17.7 0.00 0.00 0.00 74 1011.2
20260506023020 15 5 4.8 17.7 0.00 0.00 0.00 74 1011.2
20260506022505 15 324 3.2 16.1 0.00 0.00 0.00 74 1011.2
20260506022008 16 30 6.4 16.1 0.00 0.00 0.00 74 1011.2
20260506021524 15 33 4.8 14.5 0.00 0.00 0.00 74 1011.3
20260506021004 15 252 3.2 16.1 0.00 0.00 0.00 74 1011.2
20260506020507 16 298 4.8 16.1 0.00 0.00 0.00 74 1011.2
20260506020023 15 223 1.6 14.5 0.00 0.00 0.00 74 1011.1
20260506015509 15 10 4.8 14.5 0.00 0.00 0.00 74 1011.2
20260506015006 15 262 3.2 14.5 0.00 0.00 0.00 74 1011.1
20260506014525 15 17 3.2 19.3 0.00 0.00 0.00 74 1011.1
20260506014003 15 49 4.8 19.3 0.00 0.00 0.00 74 1011.1
20260506013503 15 349 4.8 12.9 0.00 0.00 0.00 74 1011.0
20260506013019 15 349 3.2 12.9 0.00 0.00 0.00 74 1010.9
20260506012507 15 56 1.6 16.1 0.00 0.00 0.00 74 1010.9
20260506012010 15 317 3.2 19.3 0.00 0.00 0.00 74 1010.8
20260506011514 15 209 4.8 19.3 0.00 0.00 0.00 74 1010.8
20260506011011 15 5 3.2 12.9 0.00 0.00 0.00 74 1010.7
20260506010508 15 259 3.2 12.9 0.00 0.00 0.00 74 1010.7
20260506010024 15 297 4.8 11.3 0.00 0.00 0.00 73 1010.7
20260506005507 15 223 3.2 11.3 0.00 0.00 0.00 73 1010.6
20260506005002 15 13 1.6 12.9 0.00 0.00 0.00 73 1010.5
20260506004508 15 339 3.2 12.9 0.00 0.00 0.00 73 1010.5
20260506004004 15 319 3.2 16.1 0.00 0.00 0.00 72 1010.4
20260506003502 15 334 3.2 16.1 0.00 0.00 0.00 72 1010.5
20260506003008 16 322 1.6 12.9 0.00 0.00 0.00 72 1010.4
20260506002503 16 313 4.8 16.1 0.00 0.00 0.00 72 1010.3
20260506002008 16 323 3.2 16.1 0.00 0.00 0.00 71 1010.3
20260506001503 16 273 3.2 12.9 0.00 0.00 0.00 71 1010.0
20260506001003 16 244 3.2 11.3 0.00 0.00 0.00 71 1009.9
20260506000505 16 317 1.6 9.7 0.00 0.00 0.00 71 1009.8
20260506000007 16 127 1.6 12.9 0.00 0.00 0.00 71 1009.8
20260505235503 16 344 3.2 12.9 0.00 0.00 0.00 71 1009.7
20260505235003 16 327 3.2 12.9 0.00 0.00 0.00 70 1009.7
20260505234507 16 11 4.8 12.9 0.00 0.00 0.00 70 1009.7
20260505234004 16 36 3.2 12.9 0.00 0.00 0.00 71 1009.5
20260505233503 16 275 3.2 12.9 0.00 0.00 0.00 71 1009.5
20260505233008 16 271 4.8 12.9 0.00 0.00 0.00 70 1009.4
20260505232507 17 335 1.6 12.9 0.00 0.00 0.00 70 1009.4
20260505232003 17 26 3.2 12.9 0.00 0.00 0.00 69 1009.3
20260505231508 17 348 3.2 14.5 0.00 0.00 0.00 69 1009.1
20260505231008 17 338 4.8 14.5 0.00 0.00 0.00 68 1009.1
20260505230505 17 305 4.8 16.1 0.00 0.00 0.00 67 1008.9
20260505230008 18 287 8.0 16.1 0.00 0.00 0.00 66 1008.8
20260505225505 18 26 1.6 17.7 0.00 0.00 0.00 66 1008.7
20260505225007 18 14 9.7 17.7 0.00 0.00 0.00 65 1008.8
20260505224504 18 262 3.2 16.1 0.00 0.00 0.00 65 1008.7
20260505224003 19 5 3.2 16.1 0.00 0.00 0.00 64 1008.7
20260505223503 19 192 1.6 19.3 0.00 0.00 0.00 64 1008.7
20260505223005 19 157 4.8 19.3 0.00 0.00 0.00 64 1008.8
20260505222502 19 9 4.8 22.5 0.00 0.00 0.00 63 1008.8
20260505222002 20 40 1.6 22.5 0.00 0.00 0.00 62 1008.8
20260505221511 20 343 6.4 20.9 0.00 0.00 0.00 61 1008.8
20260505221003 20 296 3.2 19.3 0.00 0.00 0.00 60 1008.7
20260505220503 20 124 4.8 19.3 0.00 0.00 0.00 58 1008.7
20260505220016 21 278 4.8 20.9 0.00 0.00 0.00 59 1008.6
20260505215506 21 339 8.0 20.9 0.00 0.00 0.00 59 1008.6
20260505215004 21 36 8.0 17.7 0.00 0.00 0.00 58 1008.6
20260505214518 21 34 3.2 12.9 0.00 0.00 0.00 59 1008.5
20260505214003 21 67 4.8 20.9 0.00 0.00 0.00 58 1008.5
20260505213507 21 236 6.4 20.9 0.00 0.00 0.00 56 1008.5
20260505213009 22 259 3.2 17.7 0.00 0.00 0.00 56 1008.5
20260505212503 22 42 3.2 17.7 0.00 0.00 0.00 57 1008.4